Hourly Data Report for February 22, 2020

TORONTO CITY
ONTARIO
Current Station Operator: ECCC - MSC

43°40'00.000" N
79°24'00.000" W
112.50 m
6158355
71508
XTO

Download Data

Hourly Data (February 2020)
Hourly Data Report for February 22, 2020
TIME
LST
Temp Definition
°C
Dew Point Definition
°C
Rel Hum Definition
%
Precip. Amount Definition
mm

Wind Dir Definition
10's deg

Wind Spd Definition
km/h
Visibility Definition
km
Stn Press Definition
kPa
Hmdx Definition


Wind Chill Definition


Weather Definition


00:00 -1.1 -11.4 45 0.0       100.77     LegendNANA
01:00 -1.2 -11.3 46 0.0       100.83     LegendNANA
02:00 -1.5 -11.0 48 0.0       100.82     LegendNANA
03:00 -2.0 -10.9 51 0.0       100.80     LegendNANA
04:00 -2.2 -10.7 52 0.0       100.77     LegendNANA
05:00 -2.5 -10.4 54 0.0       100.76     LegendNANA
06:00 -2.5 -10.3 55 0.0       100.81     LegendNANA
07:00 -2.8 -10.1 57 0.0       100.81     LegendNANA
08:00 -2.8 -9.9 58 0.0       100.84     LegendNANA
09:00 -1.3 -9.8 52 0.0       100.87     LegendNANA
10:00 0.5 -9.0 49 0.0       100.86     LegendNANA
11:00 1.7 -8.6 46 0.0       100.82     LegendNANA
12:00 3.0 -7.7 45 0.0       100.79     LegendNANA
13:00 4.6 -6.4 45 0.0       100.70     LegendNANA
14:00 4.9 -6.6 43 0.0       100.63     LegendNANA
15:00 5.0 -6.3 44 0.2       100.59     LegendNANA
16:00 5.3 -5.5 46 0.0       100.57     LegendNANA
17:00 5.0 -5.3 47 0.0       100.56     LegendNANA
18:00 4.3 -4.6 52 0.0       100.56     LegendNANA
19:00 3.1 -4.1 59 0.0       100.61     LegendNANA
20:00 2.6 -4.6 59 0.0       100.59     LegendNANA
21:00 2.7 -4.4 59 0.0       100.53     LegendNANA
22:00 3.0 -4.3 59 0.0       100.53     LegendNANA
23:00 2.8 -4.0 61 0.0       100.52     LegendNANA

Notes on Data Quality.

Legend

  • E = Estimated
  • M = Missing
  • NA = Not Available*
  • [empty] = Indicates an unobserved value
Date modified: